Temperature
3 4 4 4 4 4 4 4 4 4 3 5 5 5 6 7 7 7 7 7 7 7 6 6 6 5 5 5 5 4 4 4 4 3 3 3 3 3 3 3 3 3 3 3
3 4 3 3 4 4 4 4 4 4 5 5 6 6 6 6 6 7 7 7 7 7 6 6 6 5 5 5 5 4 4 4 3 3 3 3 3 2 2 2 2 2 2 2
3 3 3 4 4 4 4 4 4 5 5 5 5 5 6 7 7 7 7 7 7 7 7 6 6 5 5 5 4 4 4 3 3 3 3 2 2 2 2 2 2 2 1 1
2 3 3 5 5 4 4 4 4 4 5 4 5 6 7 7 7 8 8 7 7 7 7 6 6 5 5 4 4 4 3 3 3 3 2 2 2 2 2 1 1 1 1 1
3 2 3 5 5 4 4 4 4 4 5 5 6 5 6 8 8 8 8 7 7 7 7 6 6 5 5 5 4 4 4 3 3 2 2 2 2 1 1 1 1 1 0 0
3 3 4 6 6 5 5 5 6 5 4 5 4 4 5 8 8 8 7 7 7 7 6 6 6 5 5 4 4 4 3 3 3 2 2 2 1 1 1 1 0 0 -0 -1
3 3 3 4 5 6 6 7 7 7 6 5 4 6 7 7 7 7 7 7 6 6 6 6 5 5 5 4 4 4 3 3 2 2 2 1 1 1 0 0 -0 -0 -1 -1
2 2 4 5 4 4 6 7 8 8 8 7 7 7 7 7 7 7 7 6 6 6 6 5 5 5 4 4 4 3 3 2 2 2 1 1 0 0 -0 -0 -1 -1 -1 -2
2 4 5 5 6 7 7 7 8 8 8 7 7 7 6 6 6 6 6 6 6 5 5 5 5 4 4 4 3 3 3 2 2 1 1 0 0 -0 -0 -1 -1 -1 -2 -2
1 2 4 5 6 7 7 7 7 7 7 6 6 6 6 6 6 6 6 5 5 5 5 5 4 4 4 3 3 3 2 2 1 1 0 -0 -0 -1 -1 -1 -2 -2 -2 -3
0 2 3 6 7 7 7 7 6 6 6 6 6 6 5 5 5 5 5 5 5 4 4 4 4 3 3 3 3 2 2 1 1 0 0 -0 -1 -1 -1 -2 -2 -3 -3 -3
3 4 3 5 6 6 6 6 6 5 5 5 5 5 5 5 5 5 5 5 4 4 4 4 3 3 3 2 2 2 2 1 1 0 -0 -1 -1 -1 -2 -2 -3 -3 -3 -4
5 5 5 5 5 5 5 5 5 5 5 5 5 5 5 4 4 4 4 4 4 4 4 3 3 3 2 2 2 2 1 1 0 -0 -1 -1 -1 -2 -2 -3 -3 -3 -4 -4
4 4 3 4 4 4 4 4 4 4 4 4 4 4 4 4 4 4 4 4 4 3 3 3 3 2 2 2 1 1 1 0 -0 -1 -1 -1 -2 -2 -3 -3 -3 -4 -4 -4
3 3 3 3 3 3 3 3 3 3 4 4 4 4 4 3 4 4 4 3 3 3 3 3 2 2 2 1 1 1 0 -0 -1 -1 -2 -2 -2 -3 -3 -3 -4 -4 -4 -5
3 2 2 2 2 3 3 3 3 3 3 3 3 3 3 3 3 3 3 3 3 3 3 2 2 2 1 1 1 0 -0 -1 -1 -2 -2 -2 -3 -3 -3 -4 -4 -4 -5 -5
1 1 2 2 2 2 2 2 2 2 3 3 3 3 3 3 3 3 3 2 2 2 2 2 2 1 1 1 0 -0 -1 -1 -2 -2 -2 -3 -3 -3 -4 -4 -4 -5 -5 -5
2 2 2 2 2 2 2 2 2 2 2 2 2 2 3 3 2 2 2 2 2 2 2 1 1 1 1 0 -0 -0 -1 -1 -2 -2 -2 -3 -3 -4 -4 -4 -5 -5 -5 -6
3 3 2 2 2 2 2 2 2 2 2 2 2 2 2 2 2 2 2 2 2 2 2 1 1 0 0 -0 -1 -1 -1 -2 -2 -2 -3 -3 -3 -4 -4 -5 -5 -5 -6 -6
3 3 3 2 2 2 2 2 2 2 2 2 2 2 2 2 2 2 2 2 2 1 1 1 0 0 -0 -1 -1 -2 -2 -2 -2 -3 -3 -3 -4 -4 -4 -5 -5 -6 -6 -6
3 3 2 2 2 2 2 2 2 2 2 2 2 2 2 2 1 1 1 1 1 1 1 0 -0 -0 -1 -1 -2 -2 -2 -3 -3 -3 -4 -4 -4 -4 -5 -5 -6 -6 -6 -6
2 2 2 2 2 2 2 2 2 2 2 2 2 2 1 1 1 1 1 1 1 0 0 -0 -0 -1 -1 -1 -2 -2 -2 -3 -3 -4 -4 -4 -5 -5 -5 -5 -6 -6 -6 -7
2 2 2 2 2 2 2 2 2 2 2 2 1 1 1 1 1 0 1 1 0 0 -0 -0 -1 -1 -1 -2 -2 -2 -3 -3 -3 -4 -4 -5 -5 -5 -5 -6 -6 -6 -7 -7
2 2 2 2 2 2 2 2 2 2 2 2 1 1 1 0 0 0 0 0 -0 -0 -0 -1 -1 -1 -2 -2 -2 -3 -3 -3 -4 -4 -4 -5 -5 -5 -6 -6 -6 -7 -7 -7
1 1 1 1 1 1 2 1 1 2 1 1 1 1 0 0 -0 -0 -0 -0 -0 -1 -1 -1 -1 -2 -2 -2 -2 -3 -3 -3 -4 -4 -5 -5 -5 -6 -6 -6 -7 -7 -7 -7
0 0 0 0 1 1 1 1 1 1 1 1 1 1 0 -0 -0 -0 -1 -1 -1 -1 -1 -1 -2 -2 -2 -2 -3 -3 -3 -4 -4 -5 -5 -5 -6 -6 -6 -6 -7 -7 -7 -7
-0 0 0 0 1 1 1 1 1 1 1 0 1 1 0 -0 -0 -1 -1 -1 -1 -1 -1 -2 -2 -2 -2 -3 -3 -4 -4 -4 -4 -5 -5 -6 -6 -6 -6 -7 -7 -7 -7 -8
Wind_Speed
8 8 6 8 10 9 11 10 10 9 10 14 10 9 9 8 7 7 7 7 7 7 6 5 5 5 4 4 3 2 1 1 1 1 2 2 3 3 4 4 5 5 5 6
6 6 7 11 14 15 15 13 15 14 17 13 9 7 8 9 8 9 10 9 8 7 7 7 6 6 5 4 3 2 2 2 1 0 1 2 2 3 3 4 4 5 5 5
5 6 7 10 12 14 8 9 10 16 14 7 7 8 9 9 9 10 10 9 8 8 8 7 7 6 6 5 3 3 3 2 1 1 0 1 2 2 3 3 4 4 5 5
4 6 7 8 2 6 8 10 12 12 10 8 9 8 8 8 9 10 9 8 8 7 7 6 5 5 4 4 4 4 3 3 2 2 1 0 1 2 2 2 3 3 4 5
2 5 10 10 4 5 7 8 10 14 14 10 6 5 7 7 8 9 9 8 7 6 5 5 5 5 5 4 4 4 4 4 3 3 2 1 0 1 1 1 2 2 3 4
3 4 7 6 1 3 2 7 5 8 9 6 2 2 6 4 5 7 6 5 5 3 3 4 5 5 6 5 5 6 6 5 4 3 3 2 2 1 0 1 1 2 3 3
7 7 10 8 3 3 2 6 3 4 5 5 7 7 5 4 4 5 5 4 4 4 4 5 5 6 6 6 8 7 5 4 4 4 4 3 2 1 1 1 1 2 2 3
6 7 10 5 6 7 8 4 3 3 4 6 8 8 7 7 6 5 4 4 3 4 5 4 5 6 6 8 7 4 5 4 4 4 3 3 3 2 2 1 1 1 2 3
10 12 6 5 9 7 4 5 5 5 6 6 8 8 8 7 7 6 6 5 4 4 4 4 5 6 8 7 5 5 5 5 4 4 3 3 3 3 2 1 1 1 1 2
8 13 12 11 10 10 9 9 9 8 8 7 9 9 9 8 7 6 6 5 4 4 4 5 5 6 7 5 5 6 6 5 5 5 4 3 3 3 3 3 2 2 2 2
10 11 10 10 9 9 9 9 9 9 8 8 9 9 9 8 7 7 6 5 4 5 6 6 5 5 5 5 6 6 6 5 5 5 4 4 3 3 3 3 4 3 3 2
12 9 7 9 6 6 8 9 9 9 8 8 8 9 9 8 7 6 6 5 5 6 6 5 5 5 5 6 7 7 6 5 5 4 4 4 3 2 3 4 4 4 3 2
14 11 11 13 12 10 10 10 10 10 10 10 8 8 8 7 6 5 5 5 7 7 6 5 5 5 5 6 7 7 7 6 5 5 5 4 4 3 2 2 2 2 3 3
13 11 13 13 13 11 10 10 9 8 8 8 7 6 6 6 5 6 7 7 6 6 5 5 5 6 5 6 7 7 6 6 6 5 5 5 4 4 3 3 2 2 3 4
12 12 14 13 12 11 9 7 8 8 8 7 6 7 7 7 8 8 7 5 4 5 5 5 5 6 5 6 7 7 6 5 5 4 4 4 4 4 3 3 3 2 1 2
9 10 11 12 13 12 10 9 9 10 8 8 7 8 8 7 7 6 5 4 5 6 6 6 7 6 6 6 6 5 5 7 6 5 4 4 4 4 3 3 3 3 2 2
10 10 9 10 11 11 10 10 10 10 8 9 9 8 6 5 5 6 5 5 6 6 6 7 6 5 6 7 6 5 4 5 8 5 4 5 4 4 4 3 3 3 3 3
11 11 11 10 10 10 10 9 9 9 9 8 7 5 6 6 7 7 5 4 3 4 5 5 5 5 6 6 6 5 5 4 4 5 4 4 4 4 4 4 4 3 2 3
8 9 9 9 9 8 8 9 8 8 7 6 6 7 7 7 7 5 4 4 5 6 5 5 7 6 6 7 7 5 5 5 4 4 4 6 5 4 4 4 4 3 3 2
7 7 7 7 7 6 7 7 7 6 6 5 5 6 6 7 5 5 5 6 7 6 5 5 6 5 6 7 8 5 5 6 5 5 4 4 4 4 4 4 4 4 3 3
7 7 7 7 7 7 7 6 5 6 6 5 6 7 7 6 4 4 4 6 6 5 6 8 6 5 6 7 8 5 5 5 5 5 5 5 4 4 4 4 4 4 3 3
7 7 7 6 6 7 6 5 5 6 6 5 6 6 6 6 5 5 7 7 5 7 6 5 5 7 9 8 5 5 5 5 5 5 5 4 4 4 4 4 4 4 3 3
8 7 8 7 7 7 7 6 6 6 6 7 7 7 7 7 5 5 7 5 5 8 6 5 8 11 12 7 5 6 6 6 5 5 5 5 4 4 4 4 4 4 3 3
8 8 8 7 6 6 8 8 7 6 7 7 7 8 7 5 5 6 6 6 8 9 6 8 12 13 11 6 6 6 6 6 5 5 5 4 4 4 4 4 4 4 4 4
9 9 8 7 7 8 8 8 7 7 7 6 7 7 6 6 6 5 5 6 9 8 5 9 12 12 8 5 6 6 6 6 6 5 5 4 4 4 4 4 4 4 4 4
9 9 8 8 8 7 7 6 6 6 6 6 6 5 5 5 5 5 4 5 7 8 6 5 6 8 6 6 6 6 6 6 6 5 5 5 5 5 4 5 5 4 4 4
9 8 7 7 8 7 7 7 7 8 7 7 7 5 5 5 5 5 5 5 5 5 5 5 5 5 6 6 6 6 5 5 5 5 5 5 5 5 5 5 4 4 4 4
Wind_Direction
256 259 250 244 238 213 212 215 224 244 247 262 260 254 255 255 256 257 258 254 244 240 240 238 239 240 234 234 229 208 186 221 284 317 335 353 9 12 14 20 20 14 14 12
282 265 259 262 247 231 230 230 240 258 269 262 259 250 254 254 251 252 254 251 248 241 236 234 231 230 228 229 222 195 196 223 249 305 3 9 10 15 20 21 19 21 19 12
284 310 317 271 239 214 212 212 209 237 248 261 264 257 251 249 245 245 249 249 244 236 231 231 227 219 219 222 204 190 206 217 217 205 354 354 12 28 22 15 19 21 15 15
294 337 267 249 236 193 216 239 221 236 253 251 248 260 258 243 239 245 245 244 242 235 231 226 215 209 206 195 188 193 206 216 209 193 212 317 30 20 8 12 19 15 12 9
270 286 280 291 259 190 203 267 227 233 252 261 272 304 287 248 227 234 239 238 237 229 223 214 209 198 184 192 193 198 211 216 211 195 193 182 197 345 359 21 16 9 6 7
230 262 262 260 240 174 133 285 252 212 241 248 155 284 276 268 243 248 246 237 232 223 208 212 210 179 180 198 201 214 216 212 202 188 184 193 204 192 93 70 16 4 5 1
229 248 268 259 231 136 191 262 279 205 226 199 202 229 265 288 270 256 252 243 224 211 216 222 197 174 193 205 218 220 202 191 188 187 189 190 177 154 135 99 48 16 2 351
198 223 255 230 154 189 225 266 263 241 232 225 237 259 272 275 272 269 262 247 222 219 234 226 190 183 205 222 223 193 179 183 187 187 190 176 165 162 143 128 83 2 352 339
204 223 246 204 213 240 253 262 260 255 256 249 255 263 268 268 267 266 256 247 230 224 236 235 203 193 214 227 194 175 175 185 187 181 182 174 174 174 161 156 166 253 295 309
252 259 260 260 256 262 255 252 262 261 262 255 256 263 268 267 265 263 255 244 232 225 233 241 224 213 220 213 180 174 183 188 183 180 183 181 184 185 180 189 200 226 254 279
255 271 289 276 255 258 264 259 260 262 252 247 250 260 260 262 260 254 251 238 220 221 231 240 234 226 218 197 177 181 185 187 184 186 185 185 193 199 197 205 200 212 229 242
247 245 240 267 276 278 274 270 265 264 267 256 243 253 257 257 254 247 244 232 228 230 234 238 231 230 217 193 182 181 187 189 186 184 186 187 191 216 228 216 229 238 247 258
252 267 265 273 279 271 267 270 267 259 256 261 256 247 248 252 250 242 241 234 231 233 233 230 225 228 216 192 182 185 189 187 183 185 187 187 189 194 213 239 240 249 268 287
256 267 273 270 273 275 269 267 266 264 258 252 253 251 247 250 253 246 243 238 235 235 231 223 220 227 211 189 184 187 186 189 187 187 187 188 191 195 196 200 225 262 275 284
256 245 256 272 279 279 274 272 272 271 266 261 251 247 244 245 249 250 248 238 229 229 229 221 223 227 198 184 184 185 184 186 184 182 184 186 187 188 193 202 215 232 264 285
270 266 263 266 270 273 273 267 266 268 264 258 255 250 245 243 250 254 246 219 215 230 231 224 225 216 189 182 182 183 188 190 182 179 179 182 185 190 196 204 214 223 236 255
273 279 273 273 272 271 265 260 260 264 262 256 254 251 245 243 251 251 243 228 226 234 230 225 222 202 184 181 179 180 180 186 185 181 185 187 189 195 197 202 214 225 236 250
251 257 263 266 272 275 274 269 263 260 257 255 251 240 231 231 240 247 243 233 235 242 233 219 204 188 182 179 177 175 178 182 182 185 185 187 191 193 195 204 214 224 239 257
270 268 271 269 266 265 268 270 269 265 261 251 240 237 238 238 239 240 223 214 222 239 233 202 191 183 184 187 179 175 176 178 182 185 184 196 196 189 195 205 213 217 226 236
289 286 284 283 278 264 265 270 272 272 264 247 242 244 247 245 232 221 215 227 230 228 209 191 185 184 186 187 181 176 178 180 184 186 184 186 189 194 199 207 212 218 224 232
301 297 294 292 291 283 271 268 266 267 266 246 237 243 249 250 229 210 216 245 244 209 198 193 187 186 184 186 184 176 180 182 186 188 189 192 194 198 203 210 215 221 224 231
298 294 291 289 289 290 287 277 265 264 265 257 251 248 247 249 238 230 230 234 230 203 194 193 190 193 190 184 177 177 182 185 186 186 190 192 195 201 207 212 218 225 227 231
284 284 285 282 277 280 285 275 261 256 255 253 250 244 241 240 227 228 250 233 210 207 199 199 199 197 191 181 176 180 184 187 190 191 194 195 199 202 207 213 218 223 227 234
280 279 277 275 271 272 277 274 263 255 252 254 252 245 239 244 247 235 237 226 212 208 204 205 202 199 190 178 178 182 187 190 191 190 191 194 198 200 205 210 217 223 226 233
274 274 273 272 270 268 267 272 273 265 258 258 257 250 238 229 236 239 220 215 214 210 208 209 205 200 188 177 183 186 189 193 191 187 190 194 198 201 207 211 216 222 227 232
268 267 265 258 257 262 263 259 260 262 256 262 265 253 240 232 230 228 220 214 212 209 204 202 198 195 183 183 187 188 190 197 204 197 191 195 200 202 208 214 220 224 229 235
263 262 264 268 264 252 247 246 250 255 248 245 257 252 236 228 222 217 212 207 205 203 198 194 190 187 184 185 187 188 188 188 188 188 189 194 199 206 210 214 218 223 227 233
Height
1521 1517 1516 1514 1511 1512 1513 1510 1510 1501 1497 1483 1481 1481 1479 1478 1477 1476 1476 1475 1475 1474 1474 1474 1473 1472 1471 1471 1470 1468 1467 1466 1465 1464 1463 1461 1460 1459 1458 1456 1455 1453 1451 1449
1519 1513 1513 1510 1503 1503 1503 1501 1498 1495 1487 1476 1476 1475 1474 1473 1473 1472 1471 1471 1471 1471 1470 1470 1470 1469 1468 1468 1467 1466 1465 1464 1464 1462 1461 1460 1459 1458 1456 1455 1453 1452 1450 1448
1520 1515 1510 1502 1489 1490 1491 1488 1489 1487 1477 1473 1473 1472 1470 1469 1468 1467 1467 1467 1467 1467 1467 1467 1466 1466 1465 1465 1464 1463 1463 1462 1462 1461 1460 1459 1458 1456 1455 1454 1452 1451 1449 1447
1520 1517 1512 1487 1480 1481 1483 1480 1479 1474 1470 1469 1468 1467 1466 1465 1464 1463 1463 1463 1463 1463 1463 1463 1463 1463 1462 1462 1461 1461 1460 1460 1459 1458 1458 1457 1456 1455 1453 1452 1451 1449 1448 1446
1521 1518 1505 1484 1478 1478 1481 1476 1469 1469 1467 1466 1466 1465 1462 1460 1460 1460 1460 1460 1460 1460 1459 1459 1459 1459 1459 1458 1458 1458 1457 1457 1457 1456 1455 1455 1454 1453 1452 1451 1449 1448 1446 1445
1519 1515 1501 1479 1475 1474 1477 1474 1463 1463 1463 1464 1465 1468 1461 1458 1457 1456 1456 1456 1456 1456 1456 1455 1455 1455 1455 1455 1454 1454 1454 1454 1454 1453 1453 1452 1452 1451 1450 1449 1448 1446 1445 1443
1516 1512 1494 1477 1473 1475 1479 1470 1462 1461 1460 1461 1462 1461 1458 1456 1455 1454 1453 1452 1452 1451 1451 1451 1452 1451 1451 1451 1451 1451 1451 1451 1451 1451 1450 1450 1449 1449 1448 1447 1446 1444 1443 1442
1509 1508 1492 1470 1472 1473 1467 1462 1460 1459 1459 1458 1457 1456 1455 1453 1452 1450 1449 1449 1448 1447 1447 1447 1447 1447 1447 1447 1447 1447 1447 1447 1448 1448 1447 1447 1447 1446 1445 1444 1443 1442 1441 1440
1493 1482 1469 1466 1465 1463 1462 1460 1458 1457 1457 1456 1454 1452 1451 1449 1448 1447 1445 1444 1444 1443 1443 1443 1443 1443 1442 1443 1443 1443 1443 1444 1444 1444 1444 1444 1444 1443 1443 1442 1441 1440 1439 1437
1484 1470 1463 1461 1460 1459 1459 1457 1455 1454 1453 1451 1449 1447 1446 1445 1443 1442 1441 1440 1439 1439 1438 1438 1438 1438 1438 1439 1439 1439 1439 1440 1440 1440 1441 1441 1440 1440 1440 1439 1438 1437 1436 1435
1476 1465 1460 1455 1454 1453 1452 1451 1450 1448 1447 1446 1444 1442 1441 1440 1438 1438 1437 1436 1434 1434 1433 1433 1433 1433 1434 1434 1434 1434 1435 1436 1436 1436 1437 1437 1437 1437 1436 1436 1435 1434 1433 1432
1464 1457 1456 1451 1450 1450 1448 1446 1444 1443 1441 1440 1439 1437 1436 1434 1433 1433 1432 1431 1430 1429 1429 1429 1429 1429 1429 1429 1430 1430 1430 1431 1432 1432 1433 1433 1433 1433 1432 1432 1432 1431 1430 1429
1453 1451 1450 1446 1445 1444 1442 1440 1438 1436 1435 1433 1432 1432 1430 1429 1428 1427 1426 1426 1425 1425 1424 1424 1424 1424 1424 1425 1425 1425 1426 1427 1427 1428 1428 1428 1429 1429 1429 1429 1428 1428 1427 1426
1449 1447 1443 1440 1438 1437 1435 1433 1432 1430 1428 1427 1426 1425 1425 1424 1423 1422 1421 1421 1421 1420 1420 1419 1419 1419 1420 1420 1421 1421 1422 1423 1423 1423 1424 1424 1425 1425 1425 1425 1424 1424 1423 1422
1442 1441 1437 1434 1432 1430 1428 1427 1425 1423 1422 1421 1420 1420 1419 1418 1417 1417 1416 1416 1415 1415 1415 1414 1414 1415 1415 1415 1416 1416 1417 1418 1419 1419 1420 1420 1420 1420 1420 1420 1420 1420 1419 1419
1434 1433 1430 1428 1425 1423 1422 1420 1419 1417 1416 1415 1414 1414 1414 1413 1412 1412 1411 1411 1410 1410 1410 1410 1410 1410 1410 1411 1411 1412 1413 1414 1415 1415 1416 1416 1416 1417 1417 1416 1416 1416 1416 1415
1429 1425 1422 1420 1418 1417 1416 1414 1413 1411 1410 1409 1409 1409 1408 1408 1407 1406 1406 1406 1405 1405 1405 1405 1405 1406 1406 1406 1407 1408 1409 1410 1410 1411 1412 1412 1412 1413 1413 1413 1412 1412 1412 1412
1423 1420 1418 1416 1414 1412 1410 1409 1408 1406 1405 1405 1404 1403 1403 1402 1402 1402 1402 1401 1401 1401 1401 1401 1401 1401 1402 1402 1403 1404 1404 1405 1406 1407 1407 1408 1408 1409 1409 1409 1408 1408 1408 1408
1418 1416 1414 1412 1410 1408 1406 1405 1403 1402 1401 1400 1399 1399 1398 1398 1398 1397 1397 1396 1396 1396 1396 1397 1397 1397 1398 1398 1399 1399 1400 1401 1402 1403 1403 1404 1404 1405 1405 1405 1405 1405 1404 1404
1415 1413 1410 1408 1406 1405 1403 1401 1399 1398 1397 1396 1395 1395 1394 1394 1393 1393 1392 1392 1392 1392 1392 1393 1393 1393 1394 1394 1395 1395 1396 1397 1398 1399 1399 1400 1400 1400 1401 1401 1401 1401 1401 1400
1412 1410 1408 1405 1403 1402 1400 1398 1396 1395 1394 1393 1392 1391 1390 1390 1389 1388 1388 1387 1388 1388 1388 1388 1389 1389 1390 1390 1391 1392 1392 1393 1394 1394 1395 1396 1396 1396 1397 1397 1397 1397 1397 1397
1410 1407 1405 1403 1401 1399 1397 1395 1393 1392 1390 1389 1388 1387 1386 1385 1385 1384 1383 1383 1383 1383 1383 1384 1384 1385 1386 1386 1387 1388 1388 1389 1390 1390 1391 1392 1392 1392 1393 1393 1393 1393 1393 1393
1407 1404 1402 1399 1397 1395 1393 1392 1390 1388 1386 1385 1384 1383 1382 1381 1380 1379 1378 1379 1378 1378 1379 1379 1380 1381 1381 1382 1383 1383 1384 1385 1386 1386 1387 1388 1388 1389 1389 1389 1390 1390 1390 1389
1402 1400 1397 1395 1393 1391 1389 1387 1386 1384 1382 1380 1379 1378 1377 1375 1374 1374 1373 1373 1373 1374 1374 1375 1375 1376 1377 1378 1379 1379 1380 1381 1382 1383 1383 1384 1385 1385 1385 1386 1386 1386 1386 1385
1396 1394 1392 1390 1388 1385 1384 1382 1380 1379 1377 1375 1374 1372 1371 1370 1369 1369 1368 1368 1368 1369 1369 1370 1371 1372 1372 1373 1374 1375 1376 1377 1378 1379 1379 1380 1381 1381 1381 1382 1382 1382 1382 1382
1389 1387 1385 1383 1381 1379 1378 1376 1374 1372 1371 1369 1367 1366 1365 1365 1364 1363 1363 1363 1363 1363 1364 1365 1366 1367 1368 1369 1370 1371 1372 1373 1373 1374 1375 1376 1377 1377 1377 1378 1378 1378 1378 1378
1381 1379 1377 1375 1374 1372 1371 1369 1367 1366 1364 1363 1361 1360 1360 1359 1358 1357 1357 1357 1358 1358 1359 1360 1361 1362 1363 1364 1365 1366 1367 1368 1369 1370 1371 1372 1372 1373 1373 1374 1374 1374 1374 1374